Home   Weather   Helsinki   Past weeks

Flag for Finland Past Weather in Helsinki, Finland — Yesterday and Last 2 Weeks

Now
37 °F

Passing clouds.


Feels Like: 30 °F
Forecast: 32 / 39 °F
Wind: 10 mph from Southwest

Location: Helsinki Malmi Airport

Current Time: Feb 19, 2017 at 11:14:52 pm

Latest Report: Feb 19, 2017 at 10:20 pm


Visibility: N/A

Pressure: 29.27 "Hg

Humidity: 93%

Dew Point: 36 °F

Location of HelsinkiLocation

Past Weather in Helsinki — Graph

°F

Helsinki Temperature Yesterday

Maximum temperature yesterday: 43 °F (at 1:20 pm)
Minimum temperature yesterday: 30 °F (at 7:20 am)
Average temperature yesterday: 36 °F

High & Low Weather Summary for the Past Weeks

 TemperatureHumidityPressure
High45 °F (Feb 14, 1:20 pm)100% (Feb 4, 9:20 pm)30.95 "Hg (Feb 4, 9:20 pm)
Low0 °F (Feb 9, 7:20 am)28% (Feb 8, 2:50 pm)29.30 "Hg (Feb 19, 8:50 pm)
Average26 °F83%30.39 "Hg
* Reported Feb 4 9:20 pm — Feb 19 9:50 pm, Helsinki, Weather by CustomWeather, © 2017

Note: Actual official high and low records may vary slightly from our data, if they occured in-between our weather recording intervals... More about our weather records

Advertising

Helsinki Weather History for the Previous 24 Hours

Scroll right to see more
 ConditionsComfort  
Time TempWeatherWind HumidityBarometerVisibility
9:50 pm
Sun, Feb 19
37 °FPartly cloudy.8 mph87%29.30 "HgN/A
9:20 pm37 °FPassing clouds.9 mph87%29.30 "HgN/A
8:50 pm37 °FPartly cloudy.9 mph93%29.30 "HgN/A
8:20 pm37 °FPassing clouds.8 mph93%29.33 "HgN/A
7:50 pm37 °FPassing clouds.9 mph93%29.33 "HgN/A
7:20 pm37 °FPassing clouds.7 mph93%29.33 "HgN/A
6:50 pm37 °FPassing clouds.8 mph93%29.33 "HgN/A
6:20 pm37 °FPassing clouds.7 mph93%29.33 "HgN/A
5:50 pm37 °FPassing clouds.8 mph93%29.33 "HgN/A
5:20 pm39 °FPassing clouds.8 mph87%29.33 "HgN/A
4:50 pm39 °FPartly sunny.9 mph87%29.33 "HgN/A
4:20 pm39 °FPartly sunny.12 mph87%29.33 "HgN/A
3:50 pm39 °FPartly sunny.12 mph87%29.33 "HgN/A
3:20 pm39 °FPartly sunny.10 mph93%29.36 "HgN/A
2:50 pm39 °FPartly sunny.10 mph93%29.36 "HgN/A
2:20 pm39 °FPartly sunny.12 mph93%29.36 "HgN/A
1:50 pm39 °FPartly sunny.12 mph93%29.36 "HgN/A
1:20 pm39 °FPartly sunny.13 mph93%29.36 "HgN/A
12:50 pm39 °FPartly sunny.10 mph93%29.36 "HgN/A
12:20 pm39 °FPartly sunny.12 mph93%29.36 "HgN/A
11:50 am37 °FFog.10 mph100%29.36 "Hg3 mi
11:20 am37 °FPartly sunny.10 mph93%29.36 "Hg5 mi
10:50 am37 °FDrizzle. Fog.9 mph93%29.39 "Hg3 mi
10:20 am36 °FPartly sunny.9 mph100%29.39 "HgN/A
9:50 am36 °FDrizzle. Partly sunny.10 mph100%29.39 "HgN/A
9:20 am36 °FDrizzle. Partly sunny.9 mph93%29.39 "HgN/A
8:50 am34 °FLight rain. Partly sunny.8 mph100%29.42 "Hg5 mi
8:20 am34 °FLight rain. Partly sunny.10 mph100%29.42 "Hg5 mi
7:50 am36 °FLight rain. Partly sunny.10 mph93%29.45 "Hg4 mi
7:20 am36 °FLight rain. Low clouds.9 mph93%29.45 "Hg4 mi
6:50 am36 °FLight rain. Low clouds.10 mph93%29.47 "Hg5 mi
6:20 am36 °FLow clouds.13 mph93%29.47 "HgN/A
5:50 am36 °FLow clouds.14 mph93%29.50 "HgN/A
5:20 am36 °FLow clouds.13 mph93%29.50 "HgN/A
4:50 am36 °FLow clouds.13 mph93%29.53 "HgN/A
3:50 am34 °FLow clouds.15 mph100%29.56 "HgN/A
3:20 am34 °FLow clouds.13 mph100%29.59 "HgN/A
2:50 am34 °FDrizzle. Low clouds.12 mph93%29.59 "HgN/A
2:20 am34 °FDrizzle. Low clouds.10 mph93%29.62 "Hg6 mi
1:50 am36 °FLight rain. Low clouds.12 mph87%29.62 "Hg5 mi
1:20 am36 °FLow clouds.14 mph87%29.65 "HgN/A
12:50 am36 °FPassing clouds.9 mph87%29.65 "HgN/A
12:20 am36 °FOvercast.9 mph87%29.68 "HgN/A
11:50 pm
Sat, Feb 18
36 °FPassing clouds.8 mph81%29.68 "HgN/A
11:20 pm36 °FPassing clouds.7 mph75%29.68 "HgN/A
Weather by CustomWeather, © 2017

See weather overviewHow to use our weather pages